Regional Weather Roundup
Issued by NWS

Home | Current Version | Previous Version | Graphics & Text | Print | Product List | Glossary On
Versions: 1 2 3 4 5 6 7 8 9 10 11 12 13 14 15 16 17 18 19 20 21 22 23 24 25 26 27 28 29 30 31 32 33 34 35 36 37 38 39 40 41 42 43 44 45 46 47 48 49 50
000
ASUS43 KFSD 212202
RWRSD

WEATHER ROUNDUP FOR SOUTH DAKOTA
NATIONAL WEATHER SERVICE SIOUX FALLS SD
500 PM CDT TUE OCT 21 2014

NOTE: "FAIR" INDICATES FEW OR NO CLOUDS BELOW 12,000 FEET WITH NO
SIGNIFICANT WEATHER AND/OR OBSTRUCTIONS TO VISIBILITY.


SDZ001>005-009-010-012>017-212300-
NORTHWEST AND NORTH CENTRAL SOUTH DAKOTA

CITY           SKY/WX    TMP DP  RH WIND       PRES   REMARKS
FAITH            N/A     82  43  25 S22G31    29.68F
MOBRIDGE       SUNNY     83  44  25 S24G37    29.69S
$$

SDZ012>016-024>037-041>051-057-063-072>074-212300-
SOUTHWEST AND SOUTH CENTRAL SOUTH DAKOTA

CITY           SKY/WX    TMP DP  RH WIND       PRES   REMARKS
RAPID CTY ARPT SUNNY     80  43  26 S15       29.73S
PIERRE         SUNNY     82  41  23 S25G32    29.75F
CUSTER         SUNNY     71  36  27 SW9G21    29.87S
ELLSWORTH AFB  SUNNY     81  42  25 S14       29.72F
PHILIP         SUNNY     83  46  27 S15       29.72S
PINE RIDGE     SUNNY     77  47  34 S15       29.80S
SPEARFISH      FAIR      77  39  25 SW17G28   29.75S
WINNER         FAIR      80  31  16 S28G33    29.83F
$$

SDZ004>011-016>023-039-040-212300-
NORTHEAST SOUTH DAKOTA

CITY           SKY/WX    TMP DP  RH WIND       PRES   REMARKS
ABERDEEN       SUNNY     80  42  25 S22G35    29.82F
WATERTOWN      SUNNY     73  43  33 S21G29    29.92F
SISSETON         N/A     70  42  36 SE20G26   29.89F
$$

SDZ017-020-022-023-036>040-048>070-212300-
SOUTHEAST SOUTH DAKOTA

CITY           SKY/WX    TMP DP  RH WIND       PRES   REMARKS
SIOUX FALLS    SUNNY     72  44  36 SE13G23   29.97F
HURON          SUNNY     80  39  23 S13G24    29.85F
CHAMBERLAIN    SUNNY     78  36  21 S21G30    29.83S
MITCHELL       SUNNY     80  37  21 S21G31    29.89F
YANKTON        SUNNY     77  45  31 S18G24    29.94F
$$

ABBREVIATIONS USED IN REMARKS
   TC - TEMPERATURE IN CELSIUS
  WCI - WIND CHILL INDEX
   HX - HEAT INDEX
  VSB - VISIBILITY




USA.gov is the U.S. government's official web portal to all federal, state and local government web resources and services.